FW6794 Weather Reports


Display with metric or nautical units.
time (UTC)temp
F
wind
direction
speed
MPH
gust
MPH
rain 1hr
in
rain 24hr
in
rain mn
in
humidity
%
barometer
mb
20210805133144 71 37 2.0 7.0 0.00 0.00 0.00 71 1007.7
20210805131608 70 129 3.0 9.0 0.00 0.00 0.00 75 1007.6
20210805130105 69 49 3.0 6.0 0.00 0.00 0.00 77 1007.5
20210805124625 68 132 2.0 7.0 0.00 0.00 0.00 79 1007.6
20210805123127 67 79 1.0 5.0 0.00 0.00 0.00 81 1007.5
20210805121637 66 98 2.0 9.0 0.00 0.00 0.00 82 1007.5
20210805120128 65 84 1.0 6.0 0.00 0.00 0.00 83 1007.2
20210805114732 64 74 1.0 4.0 0.00 0.00 0.00 86 1007.0
20210805113106 62 57 1.0 3.0 0.00 0.00 0.00 87 1007.1
20210805111545 62 84 1.0 3.0 0.00 0.00 0.00 88 1007.1
20210805110054 61 100 1.0 3.0 0.00 0.00 0.00 90 1006.9
20210805104538 60 107 0.0 2.0 0.00 0.00 0.00 90 1006.9
20210805103049 60 107 0.0 1.0 0.00 0.00 0.00 90 1006.9
20210805101541 61 107 0.0 1.0 0.00 0.00 0.00 89 1006.5
20210805100102 61 107 0.0 2.0 0.00 0.00 0.00 89 1006.6
20210805094618 61 107 0.0 3.0 0.00 0.00 0.00 89 1006.7
20210805093037 60 110 0.0 1.0 0.00 0.00 0.00 89 1006.6
20210805091547 60 111 0.0 1.0 0.00 0.00 0.00 89 1006.7
20210805090039 61 111 0.0 1.0 0.00 0.00 0.00 89 1006.8
20210805084625 61 111 0.0 1.0 0.00 0.00 0.00 89 1006.6
20210805083030 61 111 0.0 1.0 0.00 0.00 0.00 89 1006.5
20210805081524 61 111 0.0 2.0 0.00 0.00 0.00 88 1006.7
20210805080023 62 111 0.0 2.0 0.00 0.00 0.00 87 1006.5
20210805074525 62 110 0.0 2.0 0.00 0.00 0.00 87 1006.6
20210805073028 62 112 1.0 2.0 0.00 0.00 0.00 88 1006.8
20210805071518 61 115 1.0 3.0 0.00 0.00 0.00 88 1006.7
20210805070035 61 160 0.0 2.0 0.00 0.00 0.00 90 1006.8
20210805064515 60 160 0.0 0.0 0.00 0.00 0.00 91 1007.1
20210805063047 60 160 0.0 0.0 0.00 0.00 0.00 90 1007.1
20210805061517 60 160 0.0 0.0 0.00 0.00 0.00 90 1007.2
20210805060017 60 160 0.0 0.0 0.00 0.00 0.00 90 1007.2
20210805054518 61 160 0.0 0.0 0.00 0.00 0.00 89 1007.2
20210805053007 61 160 0.0 0.0 0.00 0.00 0.00 90 1007.3
20210805051514 61 160 0.0 0.0 0.00 0.00 0.00 90 1007.3
20210805050041 61 160 0.0 0.0 0.00 0.00 0.00 89 1007.3
20210805044511 61 160 0.0 0.0 0.00 0.00 0.00 89 1007.4
20210805043028 61 160 0.0 0.0 0.00 0.00 0.00 89 1007.4
20210805041504 62 160 0.0 0.0 0.00 0.00 0.00 88 1007.4
20210805040214 62 160 0.0 0.0 0.00 0.00 0.00 87 1007.5
20210805034650 62 160 0.0 0.0 0.00 0.00 0.00 87 1007.2
20210805033157 63 160 0.0 0.0 0.00 0.00 0.00 86 1007.2
20210805031755 63 160 0.0 0.0 0.00 0.00 0.00 85 1007.4
20210805030215 64 160 0.0 0.0 0.00 0.00 0.00 84 1007.5
20210805024628 64 160 0.0 0.0 0.00 0.00 0.00 83 1007.5
20210805023129 65 160 0.0 1.0 0.00 0.00 0.00 81 1007.6
20210805021701 65 160 0.0 0.0 0.00 0.00 0.00 80 1007.8
20210805020204 66 160 0.0 0.0 0.00 0.00 0.00 78 1007.7
20210805014706 67 160 0.0 0.0 0.00 0.00 0.00 76 1007.7
20210805013122 68 160 0.0 0.0 0.00 0.00 0.00 75 1007.5
20210805011704 69 160 0.0 0.0 0.00 0.00 0.00 73 1007.4
20210805010257 70 160 0.0 1.0 0.00 0.00 0.00 71 1007.3
20210805004627 70 160 0.0 2.0 0.00 0.00 0.00 69 1007.1
20210805003145 71 160 0.0 2.0 0.00 0.00 0.00 68 1006.9
20210805001630 72 130 0.0 3.0 0.00 0.00 0.00 66 1006.9
20210805000146 73 131 1.0 3.0 0.00 0.00 0.00 65 1006.9
20210804234654 74 167 1.0 7.0 0.00 0.00 0.00 64 1006.9
20210804233105 75 158 1.0 4.0 0.00 0.00 0.00 61 1006.7
20210804231803 75 178 1.0 4.0 0.00 0.00 0.00 61 1006.9
20210804230134 76 156 2.0 7.0 0.00 0.00 0.00 59 1006.8
20210804224611 75 193 3.0 7.0 0.00 0.00 0.00 59 1006.9
20210804223119 76 163 2.0 7.0 0.00 0.00 0.00 58 1006.5
20210804221701 76 151 4.0 8.0 0.00 0.00 0.00 56 1006.6
20210804220059 78 168 1.0 9.0 0.00 0.00 0.00 53 1006.7
20210804214622 78 155 1.0 10.0 0.00 0.00 0.00 54 1006.7
20210804213214 78 148 3.0 8.0 0.00 0.00 0.00 53 1006.6
20210804211601 78 93 2.0 6.0 0.00 0.00 0.00 53 1006.4
20210804210048 78 94 3.0 7.0 0.00 0.00 0.00 53 1006.7
20210804204637 78 74 2.0 7.0 0.00 0.00 0.00 52 1006.8
20210804203114 78 76 2.0 8.0 0.00 0.00 0.00 50 1006.8
20210804201715 78 105 3.0 8.0 0.00 0.00 0.00 51 1006.7
20210804200127 77 178 3.0 7.0 0.00 0.00 0.00 53 1006.8
20210804194646 77 137 4.0 9.0 0.00 0.00 0.00 53 1007.0
20210804193127 79 158 1.0 8.0 0.00 0.00 0.00 52 1007.1
20210804191606 79 82 3.0 9.0 0.00 0.00 0.00 53 1007.1
20210804190206 77 143 2.0 9.0 0.00 0.00 0.00 53 1007.2
20210804184622 77 196 2.0 7.0 0.00 0.00 0.00 53 1007.1
20210804183140 77 123 3.0 7.0 0.00 0.00 0.00 53 1007.5
20210804181559 77 123 3.0 9.0 0.00 0.00 0.00 53 1007.6
20210804180059 77 85 2.0 9.0 0.00 0.00 0.00 55 1007.7
20210804174619 76 157 4.0 8.0 0.00 0.00 0.00 55 1007.9
20210804173054 76 97 3.0 7.0 0.00 0.00 0.00 59 1007.9
20210804171555 75 131 3.0 7.0 0.00 0.00 0.00 59 1008.0
20210804170035 75 123 2.0 5.0 0.00 0.00 0.00 60 1008.1
20210804164530 75 95 3.0 7.0 0.00 0.00 0.00 60 1008.0
20210804163021 74 107 2.0 7.0 0.00 0.00 0.00 61 1008.1
20210804161519 74 100 2.0 7.0 0.00 0.00 0.00 65 1008.0
20210804160044 73 119 1.0 4.0 0.00 0.00 0.00 65 1008.2
20210804154535 73 121 2.0 7.0 0.00 0.00 0.00 67 1008.3
20210804151505 72 100 3.0 6.0 0.00 0.00 0.00 70 1008.0
20210804150003 71 89 3.0 7.0 0.00 0.00 0.00 70 1008.0
20210804144702 71 111 2.0 4.0 0.00 0.00 0.00 71 1008.2
20210804143114 70 112 1.0 4.0 0.00 0.00 0.00 74 1008.2
20210804141715 69 107 2.0 6.0 0.00 0.00 0.00 75 1008.2
20210804140136 69 95 2.0 6.0 0.00 0.00 0.00 74 1008.1
20210804134607 69 96 1.0 3.0 0.00 0.00 0.00 74 1008.1